#Datum;Uhrzeit;WR;Pac;DaySum;Status;WR;Pac;DaySum;Status;Pdc1;Udc;Temp;WR;Pac;DaySum;Status;Pdc1;Udc;Temp;WR;Pac;DaySum;Status;Pdc1;Udc;Temp;WR;Pac;DaySum;Status;Pdc1;Pdc2;Udc1;Udc2;Temp;WR;Pac;DaySum;Status;Pdc1;Pdc2;Udc1;Udc2;Temp;WR;Pac;DaySum;Status;Pdc1;Udc;Temp;WR;Pac;DaySum;Status;Pdc1;Udc;Temp;WR;Pac;DaySum;Status;Pdc1;Udc;Temp
21.03.19;23:55:00;1;462;11315;0;2;0;31806;0;0;0;0;3;0;20126;0;0;0;0;4;0;30991;0;0;0;0;5;0;73244;0;0;0;0;0;0;6;0;55479;0;0;0;0;0;0;7;0;44547;0;0;0;0;8;0;44056;0;0;0;0;9;0;24078;0;0;0;0
21.03.19;23:50:00;1;476;11277;0;2;0;31806;0;0;0;0;3;0;20126;0;0;0;0;4;0;30991;0;0;0;0;5;0;73244;0;0;0;0;0;0;6;0;55479;0;0;0;0;0;0;7;0;44547;0;0;0;0;8;0;44056;0;0;0;0;9;0;24078;0;0;0;0
21.03.19;23:45:00;1;669;11234;0;2;0;31806;0;0;0;0;3;0;20126;0;0;0;0;4;0;30991;0;0;0;0;5;0;73244;0;0;0;0;0;0;6;0;55479;0;0;0;0;0;0;7;0;44547;0;0;0;0;8;0;44056;0;0;0;0;9;0;24078;0;0;0;0
21.03.19;23:40:00;1;670;11178;0;2;0;31806;0;0;0;0;3;0;20126;0;0;0;0;4;0;30991;0;0;0;0;5;0;73244;0;0;0;0;0;0;6;0;55479;0;0;0;0;0;0;7;0;44547;0;0;0;0;8;0;44056;0;0;0;0;9;0;24078;0;0;0;0
21.03.19;23:35:00;1;614;11122;0;2;0;31806;0;0;0;0;3;0;20126;0;0;0;0;4;0;30991;0;0;0;0;5;0;73244;0;0;0;0;0;0;6;0;55479;0;0;0;0;0;0;7;0;44547;0;0;0;0;8;0;44056;0;0;0;0;9;0;24078;0;0;0;0
21.03.19;23:30:00;1;510;11071;0;2;0;31806;0;0;0;0;3;0;20126;0;0;0;0;4;0;30991;0;0;0;0;5;0;73244;0;0;0;0;0;0;6;0;55479;0;0;0;0;0;0;7;0;44547;0;0;0;0;8;0;44056;0;0;0;0;9;0;24078;0;0;0;0
21.03.19;23:25:00;1;603;11028;0;2;0;31806;0;0;0;0;3;0;20126;0;0;0;0;4;0;30991;0;0;0;0;5;0;73244;0;0;0;0;0;0;6;0;55479;0;0;0;0;0;0;7;0;44547;0;0;0;0;8;0;44056;0;0;0;0;9;0;24078;0;0;0;0
21.03.19;23:20:00;1;621;10976;0;2;0;31806;0;0;0;0;3;0;20126;0;0;0;0;4;0;30991;0;0;0;0;5;0;73244;0;0;0;0;0;0;6;0;55479;0;0;0;0;0;0;7;0;44547;0;0;0;0;8;0;44056;0;0;0;0;9;0;24078;0;0;0;0
21.03.19;23:15:00;1;616;10925;0;2;0;31806;0;0;0;0;3;0;20126;0;0;0;0;4;0;30991;0;0;0;0;5;0;73244;0;0;0;0;0;0;6;0;55479;0;0;0;0;0;0;7;0;44547;0;0;0;0;8;0;44056;0;0;0;0;9;0;24078;0;0;0;0
21.03.19;23:10:00;1;616;10873;0;2;0;31806;0;0;0;0;3;0;20126;0;0;0;0;4;0;30991;0;0;0;0;5;0;73244;0;0;0;0;0;0;6;0;55479;0;0;0;0;0;0;7;0;44547;0;0;0;0;8;0;44056;0;0;0;0;9;0;24078;0;0;0;0
21.03.19;23:05:00;1;630;10822;0;2;0;31806;0;0;0;0;3;0;20126;0;0;0;0;4;0;30991;0;0;0;0;5;0;73244;0;0;0;0;0;0;6;0;55479;0;0;0;0;0;0;7;0;44547;0;0;0;0;8;0;44056;0;0;0;0;9;0;24078;0;0;0;0
21.03.19;23:00:00;1;1184;10764;0;2;0;31806;0;0;0;0;3;0;20126;0;0;0;0;4;0;30991;0;0;0;0;5;0;73244;0;0;0;0;0;0;6;0;55479;0;0;0;0;0;0;7;0;44547;0;0;0;0;8;0;44056;0;0;0;0;9;0;24078;0;0;0;0
21.03.19;22:55:00;1;641;10675;0;2;0;31806;0;0;0;0;3;0;20126;0;0;0;0;4;0;30991;0;0;0;0;5;0;73244;2;0;0;0;0;0;6;0;55479;2;0;0;0;0;0;7;0;44547;0;0;0;0;8;0;44056;0;0;0;0;9;0;24078;0;0;0;0
21.03.19;22:50:00;1;593;10621;0;2;0;31806;0;0;0;0;3;0;20126;0;0;0;0;4;0;30991;0;0;0;0;5;0;73244;2;0;0;0;0;0;6;0;55479;2;0;0;0;0;0;7;0;44547;0;0;0;0;8;0;44056;0;0;0;0;9;0;24078;0;0;0;0
21.03.19;22:45:00;1;601;10572;0;2;0;31806;0;0;0;0;3;0;20126;0;0;0;0;4;0;30991;0;0;0;0;5;0;73244;2;0;0;0;0;0;6;0;55479;2;0;0;0;0;0;7;0;44547;0;0;0;0;8;0;44056;0;0;0;0;9;0;24078;0;0;0;0
21.03.19;22:40:00;1;623;10522;0;2;0;31806;0;0;0;0;3;0;20126;0;0;0;0;4;0;30991;0;0;0;0;5;0;73244;2;0;0;0;0;0;6;0;55479;2;0;0;0;0;0;7;0;44547;0;0;0;0;8;0;44056;0;0;0;0;9;0;24078;0;0;0;0
21.03.19;22:35:00;1;668;10469;0;2;0;31806;0;0;0;0;3;0;20126;0;0;0;0;4;0;30991;0;0;0;0;5;0;73244;2;0;0;0;0;0;6;0;55479;2;0;0;0;0;0;7;0;44547;0;0;0;0;8;0;44056;0;0;0;0;9;0;24078;0;0;0;0
21.03.19;22:30:00;1;663;10414;0;2;0;31806;0;0;0;0;3;0;20126;0;0;0;0;4;0;30991;0;0;0;0;5;0;73244;2;0;0;0;0;0;6;0;55479;2;0;0;0;0;0;7;0;44547;0;0;0;0;8;0;44056;0;0;0;0;9;0;24078;0;0;0;0
21.03.19;22:25:00;1;680;10358;0;2;0;31806;0;0;0;0;3;0;20126;0;0;0;0;4;0;30991;0;0;0;0;5;0;73244;2;0;0;0;0;0;6;0;55479;2;0;0;0;0;0;7;0;44547;0;0;0;0;8;0;44056;0;0;0;0;9;0;24078;0;0;0;0
21.03.19;22:20:00;1;766;10301;0;2;0;31806;0;0;0;0;3;0;20126;0;0;0;0;4;0;30991;0;0;0;0;5;0;73244;2;0;0;0;0;0;6;0;55479;2;0;0;0;0;0;7;0;44547;0;0;0;0;8;0;44056;0;0;0;0;9;0;24078;0;0;0;0
21.03.19;22:15:00;1;791;10237;0;2;0;31806;0;0;0;0;3;0;20126;0;0;0;0;4;0;30991;0;0;0;0;5;0;73244;2;0;0;0;0;0;6;0;55479;2;0;0;0;0;0;7;0;44547;0;0;0;0;8;0;44056;0;0;0;0;9;0;24078;0;0;0;0
21.03.19;22:10:00;1;841;10171;0;2;0;31806;0;0;0;0;3;0;20126;0;0;0;0;4;0;30991;0;0;0;0;5;0;73244;2;0;0;0;0;0;6;0;55479;2;0;0;0;0;0;7;0;44547;0;0;0;0;8;0;44056;0;0;0;0;9;0;24078;0;0;0;0
21.03.19;22:05:00;1;761;10104;0;2;0;31806;0;0;0;0;3;0;20126;0;0;0;0;4;0;30991;0;0;0;0;5;0;73244;2;0;0;0;0;0;6;0;55479;2;0;0;0;0;0;7;0;44547;0;0;0;0;8;0;44056;0;0;0;0;9;0;24078;0;0;0;0
21.03.19;22:00:00;1;757;10041;0;2;0;31806;0;0;0;0;3;0;20126;0;0;0;0;4;0;30991;0;0;0;0;5;0;73244;2;0;0;0;0;0;6;0;55479;2;0;0;0;0;0;7;0;44547;0;0;0;0;8;0;44056;0;0;0;0;9;0;24078;0;0;0;0
21.03.19;21:55:00;1;737;9978;0;2;0;31806;0;0;0;0;3;0;20126;0;0;0;0;4;0;30991;0;0;0;0;5;0;73244;2;0;0;0;0;0;6;0;55479;2;0;0;0;0;0;7;0;44547;0;0;0;0;8;0;44056;0;0;0;0;9;0;24078;0;0;0;0
21.03.19;21:50:00;1;755;9915;0;2;0;31806;0;0;0;0;3;0;20126;0;0;0;0;4;0;30991;0;0;0;0;5;0;73244;2;0;0;0;0;0;6;0;55479;2;0;0;0;0;0;7;0;44547;0;0;0;0;8;0;44056;0;0;0;0;9;0;24078;0;0;0;0
21.03.19;21:45:00;1;704;9852;0;2;0;31806;0;0;0;0;3;0;20126;0;0;0;0;4;0;30991;0;0;0;0;5;0;73244;2;0;0;0;0;0;6;0;55479;2;0;0;0;0;0;7;0;44547;0;0;0;0;8;0;44056;0;0;0;0;9;0;24078;0;0;0;0
21.03.19;21:40:00;1;672;9794;0;2;0;31806;0;0;0;0;3;0;20126;0;0;0;0;4;0;30991;0;0;0;0;5;0;73244;2;0;0;0;0;0;6;0;55479;2;0;0;0;0;0;7;0;44547;0;0;0;0;8;0;44056;0;0;0;0;9;0;24078;0;0;0;0
21.03.19;21:35:00;1;701;9738;0;2;0;31806;0;0;0;0;3;0;20126;0;0;0;0;4;0;30991;0;0;0;0;5;0;73244;2;0;0;0;0;0;6;0;55479;2;0;0;0;0;0;7;0;44547;0;0;0;0;8;0;44056;0;0;0;0;9;0;24078;0;0;0;0
21.03.19;21:30:00;1;817;9679;0;2;0;31806;0;0;0;0;3;0;20126;0;0;0;0;4;0;30991;0;0;0;0;5;0;73244;2;0;0;0;0;0;6;0;55479;2;0;0;0;0;0;7;0;44547;0;0;0;0;8;0;44056;0;0;0;0;9;0;24078;0;0;0;0
21.03.19;21:25:00;1;772;9612;0;2;0;31806;0;0;0;0;3;0;20126;0;0;0;0;4;0;30991;0;0;0;0;5;0;73244;2;0;0;0;0;0;6;0;55479;2;0;0;0;0;0;7;0;44547;0;0;0;0;8;0;44056;0;0;0;0;9;0;24078;0;0;0;0
21.03.19;21:20:00;1;680;9551;0;2;0;31806;0;0;0;0;3;0;20126;0;0;0;0;4;0;30991;0;0;0;0;5;0;73244;2;0;0;0;0;0;6;0;55479;2;0;0;0;0;0;7;0;44547;0;0;0;0;8;0;44056;0;0;0;0;9;0;24078;0;0;0;0
21.03.19;21:15:00;1;694;9493;0;2;0;31806;0;0;0;0;3;0;20126;0;0;0;0;4;0;30991;0;0;0;0;5;0;73244;2;0;0;0;0;0;6;0;55479;2;0;0;0;0;0;7;0;44547;0;0;0;0;8;0;44056;0;0;0;0;9;0;24078;0;0;0;0
21.03.19;21:10:00;1;700;9435;0;2;0;31806;0;0;0;0;3;0;20126;0;0;0;0;4;0;30991;0;0;0;0;5;0;73244;2;0;0;0;0;0;6;0;55479;2;0;0;0;0;0;7;0;44547;0;0;0;0;8;0;44056;0;0;0;0;9;0;24078;0;0;0;0
21.03.19;21:05:00;1;699;9377;0;2;0;31806;0;0;0;0;3;0;20126;0;0;0;0;4;0;30991;0;0;0;0;5;0;73244;2;0;0;0;0;0;6;0;55479;2;0;0;0;0;0;7;0;44547;0;0;0;0;8;0;44056;0;0;0;0;9;0;24078;0;0;0;0
21.03.19;21:00:00;1;787;9314;0;2;0;31806;0;0;0;0;3;0;20126;0;0;0;0;4;0;30991;0;0;0;0;5;0;73244;2;0;0;0;0;0;6;0;55479;2;0;0;0;0;0;7;0;44547;0;0;0;0;8;0;44056;0;0;0;0;9;0;24078;0;0;0;0
21.03.19;20:55:00;1;731;9250;0;2;0;31806;0;0;0;0;3;0;20126;0;0;0;0;4;0;30991;0;0;0;0;5;0;73244;2;0;0;0;0;0;6;0;55479;2;0;0;0;0;0;7;0;44547;0;0;0;0;8;0;44056;0;0;0;0;9;0;24078;0;0;0;0
21.03.19;20:50:00;1;711;9182;0;2;0;31806;0;0;0;0;3;0;20126;0;0;0;0;4;0;30991;0;0;0;0;5;0;73244;2;0;0;0;0;0;6;0;55479;2;0;0;0;0;0;7;0;44547;0;0;0;0;8;0;44056;0;0;0;0;9;0;24078;0;0;0;0
21.03.19;20:45:00;1;747;9122;0;2;0;31806;0;0;0;0;3;0;20126;0;0;0;0;4;0;30991;0;0;0;0;5;0;73244;2;0;0;0;0;0;6;0;55479;2;0;0;0;0;0;7;0;44547;0;0;0;0;8;0;44056;0;0;0;0;9;0;24078;0;0;0;0
21.03.19;20:40:00;1;828;9060;0;2;0;31806;0;0;0;0;3;0;20126;0;0;0;0;4;0;30991;0;0;0;0;5;0;73244;2;0;0;0;0;0;6;0;55479;2;0;0;0;0;0;7;0;44547;0;0;0;0;8;0;44056;0;0;0;0;9;0;24078;0;0;0;0
21.03.19;20:35:00;1;702;8995;0;2;0;31806;0;0;0;0;3;0;20126;0;0;0;0;4;0;30991;0;0;0;0;5;0;73244;2;0;0;0;0;0;6;0;55479;2;0;0;0;0;0;7;0;44547;0;0;0;0;8;0;44056;0;0;0;0;9;0;24078;0;0;0;0
21.03.19;20:30:00;1;712;8936;0;2;0;31806;0;0;0;0;3;0;20126;0;0;0;0;4;0;30991;0;0;0;0;5;0;73244;2;0;0;0;0;0;6;0;55479;2;0;0;0;0;0;7;0;44547;0;0;0;0;8;0;44056;0;0;0;0;9;0;24078;0;0;0;0
21.03.19;20:25:00;1;715;8877;0;2;0;31806;0;0;0;0;3;0;20126;0;0;0;0;4;0;30991;0;0;0;0;5;0;73244;2;0;0;0;0;0;6;0;55479;2;0;0;0;0;0;7;0;44547;0;0;0;0;8;0;44056;0;0;0;0;9;0;24078;0;0;0;0
21.03.19;20:20:00;1;590;8817;0;2;0;31806;0;0;0;0;3;0;20126;0;0;0;0;4;0;30991;0;0;0;0;5;0;73244;2;0;0;0;0;0;6;0;55479;2;0;0;0;0;0;7;0;44547;0;0;0;0;8;0;44056;0;0;0;0;9;0;24078;0;0;0;0
21.03.19;20:15:00;1;580;8768;0;2;0;31806;0;0;0;0;3;0;20126;0;0;0;0;4;0;30991;0;0;0;0;5;0;73244;2;0;0;0;0;0;6;0;55479;2;0;0;0;0;0;7;0;44547;0;0;0;0;8;0;44056;0;0;0;0;9;0;24078;0;0;0;0
21.03.19;20:10:00;1;598;8720;0;2;0;31806;0;0;0;0;3;0;20126;0;0;0;0;4;0;30991;0;0;0;0;5;0;73244;2;0;0;0;0;0;6;0;55479;2;0;0;0;0;0;7;0;44547;0;0;0;0;8;0;44056;0;0;0;0;9;0;24078;0;0;0;0
21.03.19;20:05:00;1;668;8659;0;2;0;31806;0;0;0;0;3;0;20126;0;0;0;0;4;0;30991;0;0;0;0;5;0;73244;2;0;0;0;0;0;6;0;55479;2;0;0;0;0;0;7;0;44547;0;0;0;0;8;0;44056;0;0;0;0;9;0;24078;0;0;0;0
21.03.19;20:00:00;1;681;8603;0;2;0;31806;0;0;0;0;3;0;20126;0;0;0;0;4;0;30991;0;0;0;0;5;0;73244;2;0;0;0;0;0;6;0;55479;2;0;0;0;0;0;7;0;44547;0;0;0;0;8;0;44056;0;0;0;0;9;0;24078;0;0;0;0
21.03.19;19:55:00;1;718;8546;0;2;0;31806;0;0;0;0;3;0;20126;0;0;0;0;4;0;30991;0;0;0;0;5;0;73244;2;0;0;0;0;0;6;0;55479;2;0;0;0;0;0;7;0;44547;0;0;0;0;8;0;44056;0;0;0;0;9;0;24078;0;0;0;0
21.03.19;19:50:00;1;869;8484;0;2;0;31806;0;0;0;0;3;0;20126;0;0;0;0;4;0;30991;0;0;0;0;5;0;73244;2;0;0;0;0;0;6;0;55479;2;0;0;0;0;0;7;0;44547;0;0;0;0;8;0;44056;0;0;0;0;9;0;24078;0;0;0;0
21.03.19;19:45:00;1;887;8412;0;2;0;31806;0;0;0;0;3;0;20126;0;0;0;0;4;0;30991;0;0;0;0;5;0;73244;2;0;0;0;0;0;6;0;55479;2;0;0;0;0;0;7;0;44547;0;0;0;0;8;0;44056;0;0;0;0;9;0;24078;0;0;0;0
21.03.19;19:40:00;1;637;8338;0;2;0;31806;0;0;0;0;3;0;20126;0;0;0;0;4;0;30991;0;0;0;0;5;0;73244;2;0;0;0;0;0;6;0;55479;2;0;0;0;0;0;7;0;44547;0;0;0;0;8;0;44056;0;0;0;0;9;0;24078;0;0;0;0
21.03.19;19:35:00;1;659;8285;0;2;0;31806;0;0;0;0;3;0;20126;0;0;0;0;4;0;30991;0;0;0;0;5;0;73244;2;0;0;0;0;0;6;0;55479;2;0;0;0;0;0;7;0;44547;0;0;0;0;8;0;44056;0;0;0;0;9;0;24078;0;0;0;0
21.03.19;19:30:00;1;415;8231;0;2;0;31806;0;0;0;0;3;0;20126;0;0;0;0;4;0;30991;0;0;0;0;5;0;73244;2;0;0;0;0;0;6;0;55479;2;0;0;0;0;0;7;0;44547;0;0;0;0;8;0;44056;0;0;0;0;9;0;24078;0;0;0;0
21.03.19;19:25:00;1;344;8201;0;2;0;31806;0;0;0;0;3;0;20126;0;0;0;0;4;0;30991;0;0;0;0;5;0;73244;2;0;0;0;0;0;6;0;55479;2;0;0;0;0;0;7;0;44547;0;0;0;0;8;0;44056;0;0;0;0;9;0;24078;0;0;0;0
21.03.19;19:20:00;1;374;8172;0;2;0;31806;0;0;0;0;3;0;20126;0;0;0;0;4;0;30991;0;0;0;0;5;0;73244;2;0;0;0;0;0;6;0;55479;2;0;0;0;0;0;7;0;44547;0;0;0;0;8;0;44056;0;0;0;0;9;0;24078;0;0;0;0
21.03.19;19:15:00;1;658;8141;0;2;0;31806;0;0;0;0;3;0;20126;0;0;0;0;4;0;30991;0;0;0;0;5;0;73244;2;0;0;0;0;0;6;0;55479;2;0;0;0;0;0;7;0;44547;0;0;0;0;8;0;44056;0;0;0;0;9;0;24078;0;0;0;0
21.03.19;19:10:00;1;436;8081;0;2;0;31806;0;0;0;0;3;0;20126;0;0;0;0;4;0;30991;0;0;0;0;5;0;73244;2;0;0;0;0;0;6;0;55479;2;0;0;0;0;0;7;0;44547;0;0;0;0;8;0;44056;0;0;0;0;9;0;24078;0;0;0;0
21.03.19;19:05:00;1;350;8045;0;2;0;31806;0;0;0;0;3;0;20126;0;0;0;0;4;0;30991;0;0;0;0;5;0;73244;2;0;0;0;0;0;6;0;55479;2;0;0;0;0;0;7;0;44547;0;0;0;0;8;0;44056;0;0;0;0;9;0;24078;0;0;0;0
21.03.19;19:00:00;1;354;8013;0;2;0;31806;0;0;0;0;3;0;20126;0;0;0;0;4;0;30991;0;0;0;0;5;0;73244;2;0;0;0;0;0;6;0;55479;2;0;0;0;0;0;7;0;44547;0;0;0;0;8;0;44056;0;0;0;0;9;0;24078;0;0;0;0
21.03.19;18:55:00;1;404;7983;0;2;0;31806;0;0;0;0;3;0;20126;0;0;0;0;4;0;30991;0;0;0;0;5;0;73244;2;0;0;0;0;0;6;0;55479;2;0;0;0;0;0;7;0;44547;0;0;0;0;8;0;44056;0;0;0;0;9;0;24078;0;0;0;0
21.03.19;18:50:00;1;384;7952;0;2;0;31806;0;0;84;7;3;0;20126;0;0;183;15;4;0;30991;0;0;0;0;5;0;73244;2;0;0;0;0;0;6;0;55479;2;0;0;0;0;0;7;0;44547;0;0;0;0;8;0;44056;0;0;0;0;9;0;24078;0;0;0;0
21.03.19;18:45:00;1;434;7921;0;2;0;31806;6;0;303;22;3;0;20126;6;0;354;23;4;0;30991;0;0;55;20;5;0;73244;2;0;0;0;0;0;6;0;55479;2;0;0;0;0;0;7;0;44547;0;0;0;0;8;0;44056;0;0;0;0;9;0;24078;0;0;0;0
21.03.19;18:40:00;1;1676;7862;0;2;0;31806;6;0;338;23;3;0;20126;6;0;417;24;4;0;30991;1;0;101;25;5;0;73244;2;0;0;0;0;0;6;0;55479;2;0;0;0;0;0;7;0;44547;0;0;0;0;8;0;44056;0;0;0;0;9;0;24078;0;0;0;0
21.03.19;18:35:00;1;1120;7764;0;2;0;31806;6;0;355;23;3;0;20126;3;3;414;24;4;0;30991;1;0;132;25;5;0;73244;2;0;0;262;260;25;6;0;55479;1;8;2;149;329;25;7;0;44547;11;0;265;22;8;0;44056;0;0;223;18;9;0;24078;2;0;274;17
21.03.19;18:30:00;1;1281;7655;0;2;0;31806;6;0;367;24;3;0;20126;6;3;439;25;4;0;30991;1;0;155;26;5;0;73244;23;0;0;379;416;31;6;0;55479;23;6;1;180;494;29;7;0;44547;6;0;305;23;8;0;44056;6;0;304;22;9;0;24078;6;0;312;18
21.03.19;18:25:00;1;572;7572;0;2;0;31806;6;0;386;25;3;1;20126;6;6;447;25;4;0;30991;1;0;195;27;5;7;73244;26;0;0;393;569;31;6;0;55479;23;8;0;181;535;29;7;0;44547;6;0;369;23;8;0;44056;6;0;366;23;9;0;24078;6;0;378;18
21.03.19;18:20:00;1;1071;7523;0;2;7;31806;6;13;395;26;3;1;20125;6;6;492;26;4;0;30991;3;0;203;28;5;0;73244;23;0;0;415;655;32;6;0;55479;23;9;0;182;562;30;7;0;44547;6;4;405;24;8;0;44056;4;0;421;23;9;0;24078;4;0;442;18
21.03.19;18:15:00;1;782;7438;0;2;90;31805;4;126;371;27;3;37;20125;6;58;439;26;4;39;30991;3;40;197;28;5;84;73243;4;3;13;382;600;33;6;18;55479;23;16;15;483;458;30;7;1;44547;6;4;464;24;8;2;44056;3;10;434;24;9;0;24078;6;3;492;19
21.03.19;18:10:00;1;385;7377;0;2;153;31797;4;189;353;28;3;81;20122;4;115;385;27;4;77;30988;3;80;202;29;5;116;73235;4;19;23;382;600;33;6;58;55477;4;46;30;460;219;31;7;37;44547;4;77;389;25;8;13;44056;6;25;441;25;9;1;24078;6;6;513;19
21.03.19;18:05:00;1;365;7346;0;2;263;31785;4;305;352;28;3;149;20116;4;186;403;27;4;167;30982;5;174;222;29;5;153;73225;4;35;42;382;600;33;6;75;55472;4;38;26;460;219;32;7;84;44544;4;116;420;25;8;49;44055;4;93;438;25;9;6;24078;6;14;503;20
21.03.19;18:00:00;1;364;7315;0;2;373;31763;4;418;354;29;3;213;20103;4;252;405;28;4;259;30968;5;270;223;30;5;184;73212;4;60;54;382;600;33;6;95;55466;4;66;41;460;219;32;7;126;44537;4;160;385;26;8;84;44050;4;128;439;25;9;5;24078;6;9;535;20
21.03.19;17:55:00;1;2191;7254;0;2;486;31732;4;534;354;30;3;276;20086;4;320;415;29;4;352;30947;5;367;232;31;5;222;73196;4;82;73;382;600;33;6;111;55458;4;58;34;460;219;32;7;177;44526;4;213;410;26;8;127;44043;4;160;379;26;9;5;24077;6;11;548;21
21.03.19;17:50:00;1;2358;7067;0;2;639;31692;4;694;354;31;3;366;20063;4;411;416;29;4;469;30917;5;489;235;31;5;264;73178;4;98;93;382;600;33;6;130;55449;4;107;59;460;219;32;7;236;44512;4;276;462;27;8;182;44033;4;225;414;26;9;51;24077;4;75;371;21
21.03.19;17:45:00;1;2903;6868;0;2;746;31639;4;805;354;32;3;416;20033;4;461;406;29;4;561;30879;5;584;235;32;5;318;73155;4;129;108;382;600;34;6;153;55438;4;122;69;460;219;32;7;289;44492;4;332;445;27;8;253;44018;4;290;418;27;9;69;24073;4;93;424;22
21.03.19;17:40:00;1;2722;6627;0;2;892;31577;4;957;353;33;3;522;19998;4;573;415;30;4;710;30832;5;740;241;33;5;389;73129;4;165;148;382;600;34;6;228;55424;4;135;124;460;353;32;7;373;44468;4;417;424;28;8;355;43997;4;388;363;27;9;83;24067;4;111;460;22
21.03.19;17:35:00;1;2236;6430;0;2;1063;31503;4;1135;362;34;3;644;19955;4;699;422;30;4;874;30774;5;910;241;33;5;490;73096;4;225;182;404;605;34;6;358;55405;4;162;197;505;547;32;7;495;44437;4;538;365;28;8;533;43968;4;577;382;28;9;96;24060;4;130;507;23
21.03.19;17:30:00;1;2272;6240;0;2;1257;31415;4;1336;366;35;3;729;19902;4;786;418;31;4;1003;30701;5;1045;239;34;5;600;73054;4;274;238;405;634;34;6;458;55374;4;204;228;586;559;32;7;672;44397;4;721;383;29;8;699;43924;4;742;371;28;9;111;24052;4;145;510;23
21.03.19;17:25:00;1;2283;6054;0;2;1415;31311;4;1503;373;36;3;829;19841;4;891;428;31;4;1160;30618;5;1208;239;35;5;659;73004;4;281;298;335;659;35;6;566;55335;4;272;307;587;564;33;7;916;44341;4;977;399;29;8;903;43866;4;956;374;29;9;123;24043;4;155;468;24
21.03.19;17:20:00;1;1503;5866;0;2;1619;31193;4;1711;366;37;3;912;19772;4;977;421;32;4;1315;30522;5;1370;241;35;5;869;72948;4;405;368;385;644;35;6;695;55287;4;345;373;592;568;33;7;1198;44265;4;1263;392;30;8;1170;43792;4;1232;371;30;9;125;24033;4;154;363;25
21.03.19;17:15:00;1;347;5762;0;2;1802;31058;4;1912;386;38;3;1002;19696;4;1071;426;32;4;1445;30412;5;1505;240;36;5;1105;72874;4;540;448;419;665;35;6;843;55228;4;462;483;597;564;33;7;1590;44166;4;1675;429;30;8;1506;43694;4;1588;422;30;9;190;24022;4;220;351;25
21.03.19;17:10:00;1;1071;5733;0;2;1955;30909;4;2066;380;39;3;1057;19613;4;1126;422;32;4;1568;30292;5;1634;238;36;5;1291;72782;4;637;532;420;681;35;6;981;55158;4;480;501;593;572;33;7;1886;44034;4;1983;458;31;8;1769;43569;4;1866;432;31;9;320;24007;4;354;354;26
21.03.19;17:05:00;1;2224;5607;0;2;2112;30746;4;2231;385;40;3;1142;19525;4;1213;422;32;4;1726;30162;5;1798;238;37;5;1500;72673;4;759;628;424;682;36;6;1151;55075;4;600;625;596;570;33;7;1778;43843;0;1874;387;26;8;2007;43424;4;2112;449;31;9;602;23980;4;645;351;27
21.03.19;17:00:00;1;1163;5431;0;2;2182;30571;4;2307;387;40;3;1161;19430;4;1235;429;33;4;1763;30018;5;1836;236;37;5;1664;72547;4;848;694;421;673;36;6;1267;54979;4;649;658;596;566;33;7;2228;43703;4;2350;473;32;8;2133;43255;4;2243;460;32;9;801;23930;4;853;365;28
21.03.19;16:55:00;1;699;5309;0;2;2186;30388;4;2310;389;41;3;1175;19333;4;1245;426;33;4;1780;29871;5;1854;237;38;5;1802;72408;4;915;754;420;692;36;6;1359;54872;4;662;667;594;569;34;7;2275;43516;4;2390;468;32;8;2228;43077;4;2343;473;32;9;879;23863;4;934;378;29
21.03.19;16:50:00;1;1971;5264;0;2;2346;30206;4;2477;390;41;3;1227;19235;4;1298;419;33;4;1892;29723;5;1971;236;38;5;1993;72258;4;1045;853;422;686;37;6;1522;54758;4;765;767;595;568;34;7;2435;43327;4;2556;467;33;8;2393;42892;4;2510;471;33;9;996;23790;4;1058;406;30
21.03.19;16:45:00;1;2110;5088;0;2;2462;30011;4;2597;386;42;3;1266;19133;4;1337;410;33;4;1998;29565;5;2081;234;39;5;2215;72089;4;1162;955;419;682;37;6;1694;54630;4;855;833;594;567;34;7;2597;43124;4;2724;467;33;8;2547;42693;4;2681;469;33;9;1152;23708;4;1221;428;31
21.03.19;16:40:00;1;352;4926;0;2;2581;29806;4;2723;392;42;3;1348;19028;4;1423;410;33;4;2108;29399;5;2196;235;39;5;2438;71903;4;1286;1043;415;688;37;6;1853;54488;4;955;968;593;566;34;7;2733;42910;4;2869;466;34;8;2680;42482;4;2811;469;33;9;1268;23613;4;1346;456;32
21.03.19;16:35:00;1;1206;4896;0;2;2705;29591;4;2854;387;42;3;1434;18916;4;1515;425;33;4;2205;29223;5;2296;233;40;5;2654;71698;4;1397;1135;424;682;38;6;2025;54332;4;1015;1014;589;565;34;7;2883;42683;4;3021;460;34;8;2837;42259;4;2974;468;34;9;1418;23507;4;1505;477;33
21.03.19;16:30:00;1;1815;4775;0;2;2843;29366;4;2999;395;42;3;1507;18796;4;1590;422;33;4;2338;29040;5;2435;234;41;5;2904;71476;4;1546;1254;422;681;38;6;2220;54163;4;1147;1143;587;562;35;7;3050;42441;4;3209;462;34;8;3004;42021;4;3145;463;34;9;1561;23388;4;1656;495;33
21.03.19;16:25:00;1;271;4641;0;2;2885;29130;4;3042;385;42;3;1532;18671;4;1618;420;33;4;2378;28846;5;2477;231;41;5;3091;71233;4;1646;1341;420;672;39;6;2346;53977;4;1230;1209;585;560;35;7;3141;42188;4;3293;462;35;8;3082;41772;4;3235;462;35;9;1639;23259;4;1735;506;34
21.03.19;16:20:00;1;309;4619;0;2;3036;28889;4;3200;381;42;3;1641;18544;4;1732;432;33;4;2521;28647;5;2626;232;41;5;3374;70973;4;1818;1468;422;682;39;6;2567;53781;4;1316;1300;587;556;35;7;3348;41926;4;3511;460;35;8;3295;41515;4;3458;461;35;9;1797;23123;4;1902;508;35
21.03.19;16:15:00;1;321;4593;0;2;3174;28637;4;3344;380;42;3;1714;18407;4;1807;431;33;4;2632;28438;5;2742;228;42;5;3669;70690;4;1955;1599;416;673;39;6;2773;53566;4;1421;1397;585;557;35;7;3512;41648;4;3688;458;36;8;3461;41241;4;3630;460;35;9;1889;22973;4;2005;509;35
21.03.19;16:10:00;1;323;4566;0;2;3249;28372;4;3427;381;43;3;1763;18264;4;1862;421;33;4;2702;28219;5;2815;228;42;5;3874;70383;4;2095;1686;414;665;40;6;2935;53333;4;1509;1479;579;556;35;7;3623;41355;4;3807;457;36;8;3562;40953;4;3740;453;36;9;1946;22816;4;2063;505;36
21.03.19;16:05:00;1;281;4539;0;2;3401;28100;4;3583;375;43;3;1864;18117;4;1962;424;33;4;2858;27993;5;2977;228;43;5;4193;70055;4;2248;1831;418;672;40;6;3180;53086;4;1642;1619;580;555;36;7;3832;41052;4;4030;455;36;8;3780;40655;4;3969;452;36;9;2075;22654;4;2199;501;36
21.03.19;16:00:00;1;351;4516;0;2;3467;27817;4;3658;379;44;3;1887;17962;4;1988;427;34;4;2941;27755;5;3064;228;43;5;4415;69706;4;2400;1930;416;665;40;6;3341;52821;4;1703;1659;575;553;36;7;3925;40733;4;4123;446;37;8;3888;40340;4;4078;452;37;9;2135;22481;4;2258;500;37
21.03.19;15:55:00;1;278;4489;0;2;3550;27529;4;3735;371;44;3;1914;17805;4;2017;427;34;4;3022;27510;5;3147;226;44;5;4625;69337;4;2509;2027;413;662;41;6;3505;52541;4;1817;1767;572;553;36;7;4027;40411;4;4238;446;37;8;3996;40020;4;4187;446;37;9;2193;22305;4;2319;499;37
21.03.19;15:50:00;1;276;4466;0;2;3524;27233;4;3709;370;44;3;1881;17646;4;1976;413;34;4;3023;27259;5;3149;223;44;5;4730;68951;4;2562;2079;411;661;41;6;3596;52249;4;1864;1837;571;549;36;7;4053;40072;4;4252;441;37;8;4012;39685;4;4203;448;37;9;2209;22121;4;2336;499;37
21.03.19;15:45:00;1;276;4443;0;2;3736;26940;4;3934;373;45;3;2032;17489;4;2135;409;35;4;3212;27007;5;3345;224;44;5;5109;68552;4;2776;2246;411;659;41;6;3865;51948;4;1993;1937;572;551;36;7;4287;39736;4;4498;450;38;8;4246;39351;4;4453;445;38;9;2326;21937;4;2460;496;38
21.03.19;15:40:00;1;277;4420;0;2;3859;26630;4;4064;373;46;3;2180;17320;4;2291;422;35;4;3339;26741;5;3478;224;45;5;5393;68126;4;2945;2375;409;658;41;6;4077;51625;4;2117;2070;571;556;36;7;4473;39380;4;4690;441;38;8;4423;38999;4;4638;440;38;9;2436;21744;4;2575;497;38
21.03.19;15:35:00;1;366;4396;0;2;3956;26309;4;4168;372;46;3;2267;17140;4;2381;421;36;4;3419;26462;5;3561;223;45;5;5637;67675;4;3069;2483;408;655;42;6;4257;51284;4;2198;2144;569;546;36;7;4622;39008;4;4848;443;38;8;4561;38631;4;4796;444;38;9;2519;21541;4;2665;496;39
21.03.19;15:30:00;1;379;4366;0;2;4005;25979;4;4221;374;46;3;2300;16951;4;2416;413;36;4;3482;26177;5;3628;223;45;5;5831;67205;4;3184;2571;410;653;42;6;4409;50929;4;2298;2236;568;544;36;7;4737;38622;4;4972;445;38;8;4696;38251;4;4926;440;38;9;2595;21331;4;2740;494;39
21.03.19;15:25:00;1;377;4334;0;2;4043;25645;4;4260;373;46;3;2335;16760;4;2454;427;36;4;3529;25887;5;3676;224;46;5;5987;66718;4;3269;2641;407;656;42;6;4528;50562;4;2334;2269;569;547;37;7;4801;38228;4;5039;444;39;8;4740;37860;4;4976;440;39;9;2618;21115;4;2771;492;39
21.03.19;15:20:00;1;339;4302;0;2;3989;25308;4;4197;366;46;3;2338;16565;4;2458;424;36;4;3492;25594;5;3637;223;46;5;6003;66218;4;3277;2645;406;663;43;6;4542;50185;4;2349;2275;567;549;37;7;4744;37828;4;4979;441;39;8;4699;37465;4;4930;432;39;9;2607;20897;4;2754;492;39
21.03.19;15:15:00;1;340;4274;0;2;4051;24975;4;4272;376;47;3;2378;16370;4;2499;431;37;4;3566;25302;5;3715;224;46;5;6217;65717;4;3389;2747;409;654;43;6;4696;49806;4;2439;2373;567;550;37;7;4810;37436;4;5040;444;39;8;4764;37075;4;5000;440;39;9;2634;20682;4;2784;492;40
21.03.19;15:10:00;1;342;4245;0;2;4082;24637;4;4303;374;47;3;2396;16172;4;2521;434;37;4;3573;25005;5;3722;223;46;5;6336;65198;4;3474;2796;410;655;43;6;4788;49413;4;2490;2416;567;549;37;7;4846;37031;4;5084;444;39;8;4789;36676;4;5034;440;39;9;2647;20460;4;2801;490;40
21.03.19;15:05:00;1;345;4217;0;2;4225;24298;4;4448;369;47;3;2474;15972;4;2600;433;37;4;3719;24707;5;3874;225;46;5;6670;64668;4;3652;2947;411;656;43;6;5039;49014;4;2615;2520;568;552;37;7;5054;36629;4;5308;442;40;8;4998;36276;4;5248;436;40;9;2771;20241;4;2932;491;40
21.03.19;15:00:00;1;274;4188;0;2;4203;23945;4;4429;373;47;3;2505;15766;4;2633;442;37;4;3728;24397;5;3884;221;46;5;6767;64110;4;3712;2994;406;655;43;6;5121;48591;4;2655;2568;568;548;37;7;5105;36206;4;5353;436;40;8;5028;35860;4;5287;445;40;9;2788;20008;4;2949;490;40
21.03.19;14:55:00;1;275;4165;0;2;4278;23595;4;4504;368;47;3;2571;15558;4;2700;442;37;4;3787;24086;5;3944;223;47;5;6946;63547;4;3825;3077;402;636;44;6;5266;48165;4;2723;2641;561;540;37;7;5251;35781;4;5521;443;40;8;5191;35441;4;5453;441;40;9;2877;19776;4;3039;485;41
21.03.19;14:50:00;1;290;4142;0;2;4270;23239;4;4495;369;47;3;2571;15344;4;2699;437;38;4;3774;23770;5;3931;221;47;5;7006;62969;4;3849;3112;399;635;44;6;5312;47727;4;2763;2682;560;542;37;7;5269;35343;4;5535;440;40;8;5208;35008;4;5468;445;40;9;2893;19536;4;3060;497;41